When you browse on this site, cookies collect data to enhance your experience and personalize the content and advertising you see.
Visit our Privacy Policy to learn more. By continuing to use the site, you agree to this use of cookies and data.
  • En España
  • Lista de países
  • Para 7 días
  • Temperatura del agua
  • El tiempo en el mapa
  • Informadores
  • user-avatar
    Iniciar sesión

    Tiempo cada hora Katowice

    Hoy, 28 Mayo, Jueves

    Tiempo Temperatura Precipitaciones Viento Presión Humedad
    00:00 +11°C° 0 mm 1 mps 744 mmHg 84%
    01:00 +9°C° 0 mm 0 mps 744 mmHg 85%
    02:00 +10°C° 0 mm 1 mps 744 mmHg 86%
    03:00 +10°C° 0 mm 1 mps 743 mmHg 87%
    04:00 +10°C° 0 mm 1 mps 743 mmHg 88%
    05:00 +11°C° 0 mm 1 mps 743 mmHg 83%
    06:00 +13°C° 0 mm 1 mps 743 mmHg 78%
    07:00 +14°C° 0 mm 1 mps 743 mmHg 74%
    08:00 +15°C° 0.1 mm 2 mps 742 mmHg 69%
    09:00 +16°C° 0.1 mm 2 mps 742 mmHg 64%
    10:00 +17°C° 0.1 mm 3 mps 742 mmHg 60%
    11:00 +17°C° 0.3 mm 3 mps 742 mmHg 61%
    12:00 +17°C° 0.3 mm 4 mps 742 mmHg 62%
    13:00 +16°C° 0.3 mm 5 mps 741 mmHg 63%
    14:00 +16°C° 0.4 mm 5 mps 741 mmHg 67%
    15:00 +15°C° 0.4 mm 5 mps 741 mmHg 70%
    16:00 +15°C° 0.4 mm 5 mps 741 mmHg 73%
    17:00 +14°C° 0.4 mm 4 mps 741 mmHg 76%
    18:00 +13°C° 0.4 mm 4 mps 741 mmHg 79%
    19:00 +13°C° 0.4 mm 3 mps 741 mmHg 82%
    20:00 +12°C° 0.2 mm 3 mps 741 mmHg 84%
    21:00 +12°C° 0.2 mm 3 mps 741 mmHg 86%
    22:00 +12°C° 0.2 mm 2 mps 742 mmHg 88%
    23:00 +12°C° 0.1 mm 2 mps 742 mmHg 89%

    Mañana, 29 Mayo, Viernes

    Tiempo Temperatura Precipitaciones Viento Presión Humedad
    00:00 +10°C° 0.1 mm 2 mps 741 mmHg 90%
    01:00 +10°C° 0.1 mm 2 mps 741 mmHg 92%
    02:00 +10°C° 0 mm 3 mps 741 mmHg 92%
    03:00 +10°C° 0 mm 3 mps 741 mmHg 93%
    04:00 +9°C° 0 mm 3 mps 741 mmHg 94%
    05:00 +9°C° 0 mm 3 mps 741 mmHg 93%
    06:00 +9°C° 0 mm 3 mps 741 mmHg 92%
    07:00 +9°C° 0 mm 3 mps 741 mmHg 91%
    08:00 +10°C° 0 mm 4 mps 742 mmHg 87%
    09:00 +10°C° 0 mm 4 mps 742 mmHg 83%
    10:00 +11°C° 0 mm 4 mps 742 mmHg 78%
    11:00 +13°C° 0 mm 4 mps 742 mmHg 69%
    12:00 +14°C° 0 mm 5 mps 741 mmHg 60%
    13:00 +16°C° 0 mm 5 mps 741 mmHg 51%
    14:00 +16°C° 0 mm 5 mps 741 mmHg 51%
    15:00 +16°C° 0 mm 5 mps 741 mmHg 50%
    16:00 +16°C° 0 mm 5 mps 740 mmHg 49%
    17:00 +14°C° 0 mm 5 mps 740 mmHg 54%
    18:00 +13°C° 0 mm 4 mps 740 mmHg 59%
    19:00 +12°C° 0 mm 3 mps 740 mmHg 64%
    20:00 +11°C° 0 mm 3 mps 740 mmHg 68%
    21:00 +10°C° 0 mm 3 mps 740 mmHg 73%
    22:00 +9°C° 0 mm 3 mps 740 mmHg 78%
    23:00 +8°C° 0 mm 3 mps 740 mmHg 80%

    Pasado mañana, 30 Mayo, Sábado

    Tiempo Temperatura Precipitaciones Viento Presión Humedad
    00:00 +7°C° 0 mm 3 mps 740 mmHg 81%
    01:00 +7°C° 0 mm 2 mps 740 mmHg 83%
    02:00 +6°C° 0 mm 2 mps 740 mmHg 85%
    03:00 +6°C° 0 mm 2 mps 740 mmHg 88%
    04:00 +5°C° 0 mm 2 mps 740 mmHg 90%
    05:00 +6°C° 0 mm 2 mps 740 mmHg 85%
    06:00 +7°C° 0 mm 3 mps 740 mmHg 80%
    07:00 +8°C° 0 mm 3 mps 739 mmHg 75%
    08:00 +10°C° 0 mm 3 mps 739 mmHg 70%
    09:00 +11°C° 0 mm 4 mps 739 mmHg 64%
    10:00 +13°C° 0 mm 4 mps 739 mmHg 59%
    11:00 +13°C° 0 mm 4 mps 739 mmHg 60%
    12:00 +13°C° 0 mm 4 mps 739 mmHg 60%
    13:00 +13°C° 0 mm 4 mps 739 mmHg 61%
    14:00 +13°C° 0.1 mm 4 mps 738 mmHg 67%
    15:00 +12°C° 0.1 mm 4 mps 738 mmHg 72%
    16:00 +11°C° 0.1 mm 4 mps 738 mmHg 78%
    17:00 +11°C° 0.1 mm 4 mps 738 mmHg 81%
    18:00 +10°C° 0.1 mm 3 mps 737 mmHg 84%
    19:00 +10°C° 0.1 mm 3 mps 737 mmHg 87%
    20:00 +9°C° 0.1 mm 3 mps 737 mmHg 89%
    21:00 +9°C° 0.1 mm 3 mps 737 mmHg 90%
    22:00 +9°C° 0.1 mm 3 mps 737 mmHg 92%
    23:00 +8°C° 0.3 mm 4 mps 737 mmHg 92%

    31 Mayo, Domingo

    Tiempo Temperatura Precipitaciones Viento Presión Humedad
    00:00 +8°C° 0.3 mm 4 mps 736 mmHg 93%
    01:00 +8°C° 0.3 mm 4 mps 736 mmHg 94%
    02:00 +8°C° 0.5 mm 4 mps 735 mmHg 95%
    03:00 +8°C° 0.5 mm 4 mps 735 mmHg 95%
    04:00 +8°C° 0.5 mm 4 mps 735 mmHg 95%
    05:00 +10°C° 1.8 mm 4 mps 735 mmHg 96%
    06:00 +10°C° 1.8 mm 4 mps 734 mmHg 96%
    07:00 +10°C° 1.8 mm 4 mps 734 mmHg 96%
    08:00 +10°C° 1.5 mm 4 mps 734 mmHg 96%
    09:00 +10°C° 1.5 mm 4 mps 735 mmHg 96%
    10:00 +10°C° 1.5 mm 4 mps 735 mmHg 95%
    11:00 +11°C° 1.6 mm 3 mps 735 mmHg 96%
    12:00 +11°C° 1.6 mm 3 mps 735 mmHg 96%
    13:00 +11°C° 1.6 mm 3 mps 735 mmHg 96%
    14:00 +11°C° 1.1 mm 3 mps 735 mmHg 97%
    15:00 +12°C° 1.1 mm 3 mps 735 mmHg 97%
    16:00 +13°C° 1.1 mm 2 mps 735 mmHg 97%
    17:00 +13°C° 0.8 mm 2 mps 735 mmHg 97%
    18:00 +14°C° 0.8 mm 2 mps 735 mmHg 97%
    19:00 +14°C° 0.8 mm 2 mps 736 mmHg 98%
    20:00 +14°C° 0.4 mm 2 mps 736 mmHg 98%
    21:00 +13°C° 0.4 mm 3 mps 736 mmHg 98%
    22:00 +12°C° 0.4 mm 3 mps 736 mmHg 97%
    23:00 +12°C° 0.2 mm 3 mps 736 mmHg 97%

    1 Junio, Lunes

    Tiempo Temperatura Precipitaciones Viento Presión Humedad
    00:00 +12°C° 0.2 mm 3 mps 736 mmHg 97%
    01:00 +12°C° 0.2 mm 3 mps 736 mmHg 97%
    02:00 +12°C° 0 mm 3 mps 736 mmHg 96%
    03:00 +11°C° 0 mm 3 mps 736 mmHg 96%
    04:00 +11°C° 0 mm 3 mps 736 mmHg 96%
    05:00 +12°C° 0 mm 3 mps 736 mmHg 92%
    06:00 +13°C° 0 mm 4 mps 736 mmHg 87%
    07:00 +13°C° 0 mm 4 mps 737 mmHg 83%
    08:00 +14°C° 0 mm 4 mps 737 mmHg 81%
    09:00 +14°C° 0 mm 4 mps 737 mmHg 79%
    10:00 +15°C° 0 mm 4 mps 737 mmHg 77%
    11:00 +15°C° 0.2 mm 4 mps 737 mmHg 76%
    12:00 +17°C° 0.2 mm 4 mps 737 mmHg 74%
    13:00 +18°C° 0.2 mm 4 mps 737 mmHg 73%
    14:00 +17°C° 0.3 mm 5 mps 737 mmHg 72%
    15:00 +17°C° 0.3 mm 5 mps 737 mmHg 70%
    16:00 +19°C° 0.3 mm 5 mps 737 mmHg 69%
    17:00 +17°C° 0.1 mm 5 mps 737 mmHg 73%
    18:00 +17°C° 0.1 mm 4 mps 737 mmHg 76%
    19:00 +15°C° 0.1 mm 4 mps 736 mmHg 80%
    20:00 +14°C° 0 mm 4 mps 737 mmHg 82%
    21:00 +14°C° 0 mm 4 mps 737 mmHg 84%
    22:00 +13°C° 0 mm 4 mps 737 mmHg 86%
    23:00 +12°C° 0 mm 4 mps 737 mmHg 88%

    2 Junio, Martes

    Tiempo Temperatura Precipitaciones Viento Presión Humedad
    00:00 +12°C° 0 mm 3 mps 736 mmHg 90%
    01:00 +11°C° 0 mm 3 mps 736 mmHg 92%
    02:00 +11°C° 0 mm 3 mps 736 mmHg 93%
    03:00 +11°C° 0 mm 3 mps 736 mmHg 93%
    04:00 +11°C° 0 mm 3 mps 736 mmHg 93%
    05:00 +12°C° 0 mm 3 mps 736 mmHg 91%
    06:00 +12°C° 0 mm 3 mps 736 mmHg 88%
    07:00 +13°C° 0 mm 4 mps 736 mmHg 86%
    08:00 +13°C° 0 mm 4 mps 736 mmHg 84%
    09:00 +14°C° 0 mm 4 mps 736 mmHg 83%
    10:00 +14°C° 0 mm 4 mps 736 mmHg 81%
    11:00 +15°C° 0.1 mm 4 mps 736 mmHg 76%
    12:00 +17°C° 0.1 mm 4 mps 736 mmHg 71%
    13:00 +19°C° 0.1 mm 4 mps 736 mmHg 66%
    14:00 +19°C° 0.1 mm 4 mps 736 mmHg 65%
    15:00 +20°C° 0.1 mm 4 mps 735 mmHg 65%
    16:00 +20°C° 0.1 mm 4 mps 735 mmHg 65%
    17:00 +19°C° 0.2 mm 4 mps 735 mmHg 71%
    18:00 +18°C° 0.2 mm 4 mps 735 mmHg 76%
    19:00 +17°C° 0.2 mm 3 mps 735 mmHg 82%
    20:00 +16°C° 0 mm 3 mps 735 mmHg 85%
    21:00 +14°C° 0 mm 3 mps 735 mmHg 88%
    22:00 +13°C° 0 mm 3 mps 735 mmHg 91%
    23:00 +13°C° 0 mm 3 mps 735 mmHg 92%
    Mostrar más